KLM604 KLAX-EHAM

Flight info

Callsign KLM604
Flight time N/A
Altitude 35000
Route DOTSS2 CNERY DCT BLH J169 KOFFA J65 PXR DCT KA21Q DCT KA27U DCT KK36A DCT KK48G DCT SPI DCT GIJ DCT SVM DCT DERLO Q907 SIKBO/N0501F370 DCT IPTOS DCT KEMVI Q852 TAMKO Q941 AGLUK DCT BAREE N793B JANJO/M085F380 DCT 56N050W 57N040W 58N030W 58N020W DCT SUNOT DCT KESIX/N0496F390 DCT AMLAD DCT MAC DCT EMGAT DCT ERKIT N110 DOLAS L603 LAMSO
Aircraft B78X/H-SDE1E2E3FGHIJ2J3J4J5M1RWXY/LB1D1

Departure

Time 2026-05-07 04:59
Airport Los Angeles International Airport (KLAX)

Arrival

Time N/A
Airport Amsterdam Airport Schiphol (EHAM)
Time Latitude Longitude Altitude Speed Heading
2026-05-07 04:35 33.94415 -118.41582 103 ft 0 kts 83°
2026-05-07 04:46 33.94413 -118.41597 101 ft 4 kts 83°
2026-05-07 04:47 33.94410 -118.41629 100 ft 4 kts 83°
2026-05-07 04:47 33.94408 -118.41655 99 ft 4 kts 72°
2026-05-07 04:47 33.94402 -118.41674 98 ft 4 kts 28°
2026-05-07 04:47 33.94382 -118.41680 98 ft 4 kts 354°
2026-05-07 04:48 33.94357 -118.41677 100 ft 4 kts 353°
2026-05-07 04:48 33.94330 -118.41673 99 ft 4 kts 353°
2026-05-07 04:48 33.94308 -118.41669 99 ft 0 kts 353°
2026-05-07 04:51 33.94308 -118.41670 99 ft 0 kts 353°
2026-05-07 04:52 33.94318 -118.41671 99 ft 2 kts 353°
2026-05-07 04:52 33.94340 -118.41674 99 ft 4 kts 353°
2026-05-07 04:52 33.94378 -118.41680 98 ft 7 kts 353°
2026-05-07 04:52 33.94439 -118.41689 102 ft 10 kts 353°
2026-05-07 04:53 33.94520 -118.41701 101 ft 13 kts 353°
2026-05-07 04:53 33.94605 -118.41713 103 ft 12 kts 355°
2026-05-07 04:53 33.94652 -118.41657 103 ft 10 kts 76°
2026-05-07 04:53 33.94663 -118.41564 104 ft 12 kts 83°
2026-05-07 04:54 33.94673 -118.41459 102 ft 11 kts 83°
2026-05-07 04:54 33.94710 -118.41392 106 ft 9 kts 18°
2026-05-07 04:54 33.94764 -118.41381 104 ft 7 kts 26°
2026-05-07 04:54 33.94786 -118.41336 105 ft 7 kts 74°
2026-05-07 04:55 33.94796 -118.41254 105 ft 13 kts 83°
2026-05-07 04:55 33.94809 -118.41128 106 ft 17 kts 83°
2026-05-07 04:55 33.94825 -118.40966 106 ft 22 kts 83°
2026-05-07 04:55 33.94845 -118.40766 106 ft 25 kts 83°
2026-05-07 04:56 33.94868 -118.40554 106 ft 25 kts 83°
2026-05-07 04:56 33.94889 -118.40346 105 ft 24 kts 83°
2026-05-07 04:56 33.94909 -118.40152 105 ft 22 kts 83°
2026-05-07 04:56 33.94924 -118.39996 105 ft 17 kts 83°
2026-05-07 04:57 33.94944 -118.39937 106 ft 0 kts 48°
2026-05-07 04:57 33.94950 -118.39931 107 ft 3 kts 42°
2026-05-07 04:58 33.94982 -118.39916 110 ft 6 kts 12°
2026-05-07 04:58 33.95024 -118.39924 111 ft 7 kts 334°
2026-05-07 04:58 33.95037 -118.39998 111 ft 11 kts 262°
2026-05-07 04:58 33.95021 -118.40160 112 ft 39 kts 263°
2026-05-07 04:59 33.94960 -118.40752 113 ft 102 kts 263°
2026-05-07 04:59 33.94848 -118.41841 110 ft 158 kts 263°
2026-05-07 04:59 33.94692 -118.43323 379 ft 192 kts 261°
2026-05-07 04:59 33.94530 -118.44945 1361 ft 198 kts 264°
2026-05-07 05:00 33.94387 -118.46649 2198 ft 209 kts 265°
2026-05-07 05:00 33.94289 -118.48435 2899 ft 219 kts 267°
2026-05-07 05:00 33.94211 -118.50351 3405 ft 239 kts 267°
2026-05-07 05:00 33.93717 -118.52362 3730 ft 267 kts 231°
2026-05-07 05:01 33.92198 -118.53573 4753 ft 264 kts 194°
2026-05-07 05:01 33.90351 -118.53655 5487 ft 271 kts 176°
2026-05-07 05:01 33.88454 -118.53500 6232 ft 276 kts 176°
2026-05-07 05:01 33.86520 -118.53342 7034 ft 281 kts 175°
2026-05-07 05:02 33.84550 -118.53194 7848 ft 286 kts 175°
2026-05-07 05:02 33.82545 -118.53047 8660 ft 291 kts 174°
2026-05-07 05:02 33.80501 -118.52893 9478 ft 297 kts 174°
2026-05-07 05:02 33.78420 -118.52735 10243 ft 304 kts 173°
2026-05-07 05:03 33.76254 -118.52569 10700 ft 321 kts 174°
2026-05-07 05:03 33.73955 -118.52396 11083 ft 340 kts 173°
2026-05-07 05:03 33.71624 -118.51746 11431 ft 353 kts 152°
2026-05-07 05:03 33.69613 -118.49994 11753 ft 366 kts 129°
2026-05-07 05:04 33.68286 -118.47378 12312 ft 370 kts 110°
2026-05-07 05:04 33.67386 -118.44452 13000 ft 377 kts 106°
2026-05-07 05:04 33.66579 -118.41435 13734 ft 382 kts 105°
2026-05-07 05:04 33.65708 -118.38395 14413 ft 388 kts 108°
2026-05-07 05:05 33.64798 -118.35336 15099 ft 390 kts 103°
2026-05-07 05:05 33.64457 -118.32125 15790 ft 389 kts 89°
2026-05-07 05:05 33.64435 -118.28858 16476 ft 393 kts 88°
2026-05-07 05:05 33.64459 -118.25569 17160 ft 396 kts 87°
2026-05-07 05:06 33.64479 -118.22253 17837 ft 399 kts 88°
2026-05-07 05:06 33.64473 -118.18902 18480 ft 403 kts 88°
2026-05-07 05:06 33.64463 -118.15571 19028 ft 406 kts 88°
2026-05-07 05:06 33.64464 -118.12128 19621 ft 409 kts 88°
2026-05-07 05:07 33.64467 -118.08709 20203 ft 411 kts 88°
2026-05-07 05:07 33.64464 -118.05303 20762 ft 414 kts 88°
2026-05-07 05:07 33.64458 -118.01842 21345 ft 416 kts 88°
2026-05-07 05:07 33.64453 -117.98354 21901 ft 418 kts 88°
2026-05-07 05:08 33.64448 -117.94855 22443 ft 421 kts 88°
2026-05-07 05:08 33.64442 -117.91332 22964 ft 423 kts 88°
2026-05-07 05:08 33.64433 -117.87788 23480 ft 425 kts 88°
2026-05-07 05:08 33.64424 -117.84231 23947 ft 428 kts 88°
2026-05-07 05:09 33.64365 -117.80646 24356 ft 431 kts 93°
2026-05-07 05:09 33.63811 -117.77096 24772 ft 436 kts 103°
2026-05-07 05:09 33.62952 -117.73585 25170 ft 439 kts 103°
2026-05-07 05:09 33.62103 -117.70115 25555 ft 441 kts 103°
2026-05-07 05:10 33.61229 -117.66583 25946 ft 443 kts 103°
2026-05-07 05:10 33.60351 -117.63030 26322 ft 445 kts 103°
2026-05-07 05:10 33.59471 -117.59460 26704 ft 447 kts 103°
2026-05-07 05:10 33.58584 -117.55868 27075 ft 450 kts 103°
2026-05-07 05:11 33.57691 -117.52262 27445 ft 452 kts 103°
2026-05-07 05:11 33.56792 -117.48639 27801 ft 455 kts 103°